[[{"header":{"parameterUnit":"m.s-1","parameterCategory":1,"la1":30.2991,"la2":30.254,"lo1":-89.0895,"lo2":-89.0444,"dy":0.0017,"dx":0.0017,"nx":28,"ny":28,"refTime":"2023-07-19T21:00:00:Z","depth":0,"parameterNumber":2,"parameterNumberName":"U-component_of_WINDS"},"data":[0,0,0,0,0,0,0,0,0,0,0,0,0,0,0,0,0,0,0,0,0,0,0,0,0,0,0,0,0,0,0,0,0,0,0,0,0,0,0,0,0,0,0,0,0,0,0,0,0,0,0,0,0,0,0,0,0,0,1.4454,1.4453,0,1.4408,1.4408,1.4407,1.432,1.4318,1.4316,1.4315,1.4271,1.4271,1.4272,0,0,0,0,0,0,0,0,0,0,0,0,0,1.4466,1.4466,1.4454,1.4453,1.4453,1.4408,1.4408,1.4407,1.432,1.4318,1.4316,1.4314,1.4271,1.4271,1.4272,0,0,0,0,0,0,0,0,0,0,0,0,0,1.4444,1.4466,1.4454,1.4404,1.4399,1.4408,1.4408,1.4407,1.432,1.4318,1.4315,1.4313,1.4271,1.4271,1.4272,1.4327,0,0,1.4274,1.4274,0,0,0,0,0,0,0,0,1.4446,1.4444,1.4412,1.4407,1.4402,1.4367,1.4396,1.438,1.4321,1.435,1.4315,1.4312,1.4305,1.4303,1.43,1.4325,1.4323,1.4274,1.4274,1.4274,1.4275,0,0,0,0,0,0,0,1.4447,1.4446,1.4436,1.4411,1.4405,1.4384,1.4378,1.4392,1.4343,1.4348,1.4341,1.4337,1.4302,1.43,1.4298,1.4323,1.4274,1.4274,1.4275,1.4275,1.4388,1.439,0,0,0,0,0,0,1.4456,1.4447,1.4437,1.4434,1.4418,1.4386,1.4379,1.4381,1.4342,1.4334,1.4339,1.4333,1.43,1.4298,1.4296,1.4356,1.4274,1.4275,1.4275,1.4385,1.4388,1.4391,0,0,0,0,0,0,1.4456,1.4456,1.4439,1.4439,1.4435,1.4388,1.4391,1.4381,1.4379,1.4336,1.4327,1.4346,1.4298,1.4295,1.4319,1.4354,1.4275,1.4276,1.4382,1.4386,1.439,1.4479,0,0,0,0,0,0,1.4457,1.4457,1.4477,1.444,1.4436,1.4463,1.4393,1.4382,1.438,1.4371,1.434,1.4332,1.4295,1.4319,1.432,1.4353,1.4276,1.4379,1.4384,1.4389,1.4473,1.4485,1.4496,0,0,0,0,0,1.4458,1.4505,1.4479,1.4478,1.446,1.4465,1.4462,1.4419,1.4383,1.4403,1.4375,1.4333,1.435,1.4322,1.4323,1.4357,1.4377,1.4383,1.4388,1.4467,1.4483,1.4496,0,0,0,0,0,0,1.455,1.45,1.447,1.4507,1.449,1.445,1.4475,1.4437,1.4432,1.4424,1.437,1.4364,1.4395,1.4378,1.4348,1.4407,1.4356,1.4363,1.4416,1.4431,1.4442,1.4445,1.4277,0,0,0,0,0,1.4574,1.4581,1.4538,1.4574,1.4568,1.4523,1.4523,1.449,1.4472,1.4465,1.4439,1.4423,1.4424,1.4427,1.4426,1.447,1.4461,1.4493,1.4505,1.4515,1.4521,1.454,1.4554,1.4411,1.4411,1.441,0,0,1.4625,1.4598,1.4607,1.4592,1.4576,1.4584,1.4518,1.4531,1.4536,1.4467,1.4487,1.4468,1.4446,1.448,1.4493,1.4467,1.4558,1.4523,1.4531,1.4531,1.4548,1.4561,1.4573,1.4415,1.4414,1.4413,0,0,1.4721,1.4702,1.4729,1.4714,1.4689,1.4658,1.4665,1.463,1.4614,1.4633,1.458,1.4587,1.4591,1.4577,1.4571,1.4659,1.4619,1.466,1.4721,1.4741,1.4752,1.4762,1.4791,1.4803,1.4666,1.4666,1.4666,0,1.4787,1.4797,1.4749,1.4763,1.4758,1.4694,1.472,1.4708,1.4685,1.4683,1.4653,1.4655,1.4637,1.4665,1.4686,1.4684,1.4688,1.4663,1.4754,1.4764,1.4772,1.48,1.4811,1.4671,1.4671,1.467,1.467,0,1.4879,1.4887,1.4912,1.4889,1.4886,1.4908,1.4861,1.4864,1.4831,1.4804,1.4823,1.4798,1.4789,1.4794,1.4763,1.4817,1.4801,1.4764,1.4712,1.4791,1.4816,1.4827,1.4678,1.4677,1.4675,1.4674,0,0,1.5033,1.4981,1.499,1.4978,1.4945,1.495,1.4968,1.4958,1.4961,1.4947,1.4959,1.4963,1.4928,1.492,1.4887,1.4904,1.4973,1.4865,1.4863,1.4884,1.5028,1.5056,1.5069,1.4947,1.4948,1.495,1.503,0,1.5121,1.5146,1.5102,1.5138,1.5143,1.5082,1.5097,1.5078,1.5052,1.5053,1.5025,1.5027,1.4982,1.4976,1.4991,1.4962,1.5001,1.4955,1.4957,1.4958,1.4963,1.5082,1.5111,1.5188,1.5039,1.5041,1.5042,0,1.5227,1.5216,1.5252,1.5214,1.5215,1.5229,1.5215,1.5217,1.5194,1.5174,1.5165,1.5124,1.5138,1.5088,1.5106,1.5076,1.5073,1.5059,1.5061,1.5059,1.5004,1.5082,1.5211,1.5222,1.5057,1.5056,1.5055,0,1.5333,1.5327,1.5347,1.5339,1.5296,1.5307,1.529,1.5264,1.526,1.5248,1.5245,1.5236,1.5231,1.5224,1.5182,1.515,1.5204,1.5151,1.5187,1.5188,1.52,1.52,1.533,1.5202,1.5201,1.5201,1.5201,0,1.5435,1.546,1.5394,1.5407,1.5431,1.5379,1.5405,1.5382,1.5359,1.5365,1.5312,1.532,1.5264,1.5265,1.5232,1.525,1.5249,1.5233,1.5223,1.5237,1.5238,1.5234,1.5227,1.5204,1.5204,1.5203,1.5202,0,1.5558,1.5515,1.5533,1.549,1.5479,1.5499,1.5462,1.5472,1.5441,1.545,1.5449,1.5402,1.54,1.5358,1.5348,1.5325,1.5356,1.5338,1.5364,1.5357,1.5395,1.5391,1.5525,1.554,1.5404,1.5405,1.5406,0,1.5625,1.5642,1.56,1.5599,1.5584,1.5585,1.558,1.5529,1.5526,1.55,1.5512,1.5505,1.5497,1.5497,1.5462,1.5454,1.5434,1.5481,1.5432,1.5444,1.5432,1.5431,1.5432,1.5492,1.5494,1.5495,1.5496,0,1.5749,1.5726,1.5721,1.5707,1.5702,1.569,1.5674,1.5677,1.5621,1.562,1.5616,1.561,1.5598,1.5592,1.5576,1.5558,1.5518,1.5512,1.5519,1.5532,1.5546,1.5537,1.5391,1.5509,1.5508,1.5507,1.5506,1.5505,1.5844,1.5855,1.5827,1.5822,1.5804,1.5789,1.5795,1.5765,1.5761,1.5746,1.5716,1.5717,1.5691,1.5666,1.5651,1.5651,1.5627,1.5638,1.564,1.5644,1.565,1.5547,1.5648,1.5648,1.5647,1.5647,1.5647,0,1.5963,1.5941,1.5937,1.5915,1.5911,1.5872,1.5851,1.585,1.5851,1.583,1.5823,1.5818,1.5811,1.5775,1.5763,1.577,1.5751,1.5769,1.5767,1.5763,1.5674,1.5667,1.5784,1.5784,1.5784,1.5784,1.5784,1.5784,1.6025,1.604,1.6014,1.602,1.5997,1.5996,1.5988,1.5974,1.5956,1.5953,1.5946,1.5922,1.5894,1.588,1.5872,1.5861,1.5859,1.5883,1.5866,1.5783,1.577,1.5757,1.5751,1.5883,1.5883,1.5955,1.5956,1.5957]},{"header":{"parameterUnit":"m.s-1","parameterCategory":1,"la1":30.2991,"la2":30.254,"lo1":-89.0895,"lo2":-89.0444,"dy":0.0017,"dx":0.0017,"nx":28,"ny":28,"refTime":"2023-07-19T21:00:00:Z","depth":0,"parameterNumber":3,"parameterNumberName":"V-component_of_WINDS"},"data":[0,0,0,0,0,0,0,0,0,0,0,0,0,0,0,0,0,0,0,0,0,0,0,0,0,0,0,0,0,0,0,0,0,0,0,0,0,0,0,0,0,0,0,0,0,0,0,0,0,0,0,0,0,0,0,0,0,0,4.9037,4.9038,0,4.9146,4.9147,4.9148,4.912,4.9118,4.9116,4.9114,4.9216,4.9221,4.9225,0,0,0,0,0,0,0,0,0,0,0,0,0,4.8796,4.8801,4.9037,4.9038,4.904,4.9145,4.9147,4.9148,4.912,4.9118,4.9115,4.9113,4.9214,4.922,4.9226,0,0,0,0,0,0,0,0,0,0,0,0,0,4.8902,4.8803,4.9037,4.9039,4.904,4.9145,4.9147,4.9149,4.9121,4.9117,4.9114,4.9111,4.9213,4.9219,4.9226,4.9334,0,0,4.9248,4.9251,0,0,0,0,0,0,0,0,4.8896,4.8911,4.9037,4.9039,4.904,4.9116,4.91,4.921,4.9121,4.909,4.9113,4.911,4.9185,4.9194,4.9221,4.9338,4.9343,4.9249,4.9253,4.9256,4.9258,0,0,0,0,0,0,0,4.8889,4.8906,4.908,4.9039,4.9041,4.9031,4.9043,4.912,4.9153,4.9092,4.9091,4.9104,4.9185,4.9214,4.9223,4.9344,4.9248,4.9255,4.9259,4.9262,4.9553,4.9557,0,0,0,0,0,0,4.8882,4.89,4.9076,4.9083,4.8959,4.9038,4.9051,4.9095,4.9153,4.9159,4.9107,4.9102,4.9204,4.9215,4.9227,4.9355,4.9256,4.9262,4.9266,4.955,4.9554,4.9558,0,0,0,0,0,0,4.8877,4.8898,4.9072,4.8991,4.9013,4.9046,4.9095,4.9099,4.9128,4.9164,4.9169,4.9131,4.9202,4.9217,4.9307,4.9358,4.9266,4.9272,4.9546,4.9551,4.9556,4.9613,0,0,0,0,0,0,4.887,4.8896,4.8939,4.8993,4.9017,4.9154,4.9098,4.9103,4.9141,4.9137,4.9188,4.9193,4.92,4.9297,4.9314,4.9366,4.9278,4.9541,4.9548,4.9554,4.9606,4.9619,4.963,0,0,0,0,0,4.8861,4.8949,4.8942,4.8963,4.9072,4.9157,4.917,4.9179,4.9145,4.9188,4.921,4.9192,4.935,4.9307,4.9326,4.938,4.9538,4.9546,4.9554,4.9601,4.9617,4.963,0,0,0,0,0,0,4.8898,4.8956,4.8948,4.9057,4.9102,4.9152,4.9205,4.9196,4.9249,4.9242,4.9248,4.926,4.9353,4.9376,4.9326,4.9486,4.9439,4.9451,4.9468,4.9483,4.9495,4.9486,4.9283,0,0,0,0,0,4.8919,4.8986,4.9032,4.9123,4.9146,4.9172,4.9209,4.9212,4.9258,4.9277,4.9306,4.9349,4.9408,4.9447,4.9504,4.961,4.9619,4.9657,4.9669,4.9678,4.9688,4.9744,4.9761,4.9584,4.9584,4.9583,0,0,4.8962,4.9002,4.9043,4.9131,4.9167,4.9233,4.9188,4.926,4.9308,4.9286,4.9375,4.9398,4.9446,4.9545,4.9589,4.9566,4.9739,4.9688,4.9696,4.97,4.9754,4.977,4.9785,4.9589,4.9588,4.9587,0,0,4.9074,4.9113,4.9192,4.923,4.9285,4.9302,4.9321,4.9373,4.9388,4.9477,4.9462,4.9518,4.9621,4.9655,4.9686,4.9812,4.9796,4.983,4.9892,4.9946,4.996,4.9972,5.0016,5.0031,4.984,4.984,4.984,0,4.912,4.9222,4.9234,4.9307,4.9345,4.9332,4.9411,4.9445,4.9515,4.954,4.9515,4.9643,4.9674,4.978,4.9811,4.9837,4.9857,4.9824,4.9958,4.997,4.9982,5.0023,5.0039,4.9844,4.9844,4.9843,4.9843,0,4.9275,4.9345,4.9402,4.9474,4.9518,4.9594,4.9614,4.9657,4.9656,4.9675,4.9764,4.9802,4.9866,4.9891,4.989,4.9997,4.9981,4.9957,4.9908,5.0002,5.0041,5.0057,4.9849,4.9848,4.9847,4.9846,0,0,4.9411,4.949,4.951,4.9542,4.9603,4.9656,4.973,4.9795,4.9831,4.9879,4.994,5.0027,5.0005,5.0041,5.0043,5.0091,5.0187,5.0061,5.0062,5.0081,5.0304,5.0321,5.0339,5.0177,5.018,5.0183,5.0299,0,4.9528,4.9662,4.9674,4.9793,4.9857,4.9846,4.991,4.9952,4.9972,5.0026,5.0046,5.0108,5.0075,5.0096,5.0143,5.0165,5.0231,5.0157,5.023,5.0233,5.0217,5.036,5.0378,5.0486,5.0315,5.0317,5.0319,0,4.9681,4.9738,4.9864,4.9915,4.9942,5.0,5.0061,5.0114,5.0161,5.0171,5.0212,5.0208,5.0281,5.0232,5.0331,5.0281,5.0311,5.0326,5.0331,5.0336,5.028,5.0367,5.0521,5.0536,5.0343,5.0341,5.034,0,4.9766,4.9873,4.9963,4.999,5.0053,5.0094,5.0121,5.0166,5.0204,5.0255,5.028,5.0338,5.037,5.0414,5.0425,5.0388,5.0523,5.0475,5.0531,5.0531,5.0559,5.0556,5.0718,5.0582,5.0581,5.0581,5.0581,0,4.9894,4.9971,5.0002,5.0056,5.0141,5.0154,5.0237,5.0261,5.0301,5.0358,5.0351,5.0404,5.0416,5.0471,5.0479,5.0559,5.0574,5.0582,5.0583,5.0582,5.0581,5.06,5.0592,5.0585,5.0584,5.0584,5.0583,0,5.0002,5.0027,5.0123,5.0175,5.019,5.025,5.0294,5.0344,5.0363,5.0435,5.0453,5.0481,5.0545,5.0561,5.0636,5.0642,5.0736,5.073,5.0721,5.072,5.0774,5.0768,5.0953,5.0976,5.0826,5.0828,5.0829,0,5.0081,5.0141,5.02,5.024,5.027,5.0333,5.0372,5.0387,5.0428,5.0486,5.0529,5.0593,5.0644,5.0746,5.0771,5.0828,5.0823,5.0884,5.0831,5.0828,5.0822,5.0818,5.0823,5.0893,5.0895,5.0896,5.0897,0,5.0218,5.0227,5.0287,5.035,5.0399,5.0449,5.0496,5.0528,5.0548,5.0594,5.0661,5.0701,5.0779,5.0841,5.0899,5.0924,5.0913,5.0914,5.0929,5.0928,5.0919,5.0923,5.0746,5.0909,5.0908,5.0907,5.0906,5.0906,5.0313,5.0365,5.0415,5.0481,5.0519,5.0564,5.0615,5.0641,5.0698,5.0765,5.0769,5.0841,5.0885,5.0962,5.099,5.1044,5.1026,5.1049,5.1054,5.1059,5.1063,5.0912,5.1055,5.1055,5.1054,5.1054,5.1054,0,5.0448,5.048,5.0541,5.0609,5.0661,5.065,5.0702,5.0744,5.0809,5.0853,5.0904,5.098,5.1041,5.1071,5.1131,5.1168,5.1164,5.1183,5.1179,5.1185,5.1078,5.1057,5.1185,5.1185,5.1185,5.1185,5.1185,5.1185,5.0524,5.0611,5.0626,5.0731,5.0762,5.0835,5.0866,5.0906,5.0941,5.1027,5.1079,5.11,5.1137,5.1199,5.1253,5.1261,5.1282,5.1302,5.1307,5.1206,5.1192,5.1179,5.116,5.1307,5.1307,5.1409,5.141,5.1411]}]]